When you browse on this site, cookies collect data to enhance your experience and personalize the content and advertising you see.
Visit our Privacy Policy to learn more. By continuing to use the site, you agree to this use of cookies and data.
  • In Portugal
  • List of Countries
  • For 7 days
  • Water Temperature
  • Weather Map
  • Weather Widgets
  • user-avatar
    Login

    Hourly Weather Kocuby

    Today, 23 September, Monday

    Time Temperature Precipitation Wind Pressure Humidity
    00:00 +10°C° 0 mm 1 mps 716 mmHg 79%
    01:00 +10°C° 0 mm 1 mps 715 mmHg 79%
    02:00 +10°C° 0 mm 1 mps 715 mmHg 77%
    03:00 +10°C° 0 mm 1 mps 715 mmHg 75%
    04:00 +10°C° 0 mm 1 mps 715 mmHg 73%
    05:00 +11°C° 0 mm 1 mps 715 mmHg 72%
    06:00 +11°C° 0 mm 1 mps 715 mmHg 71%
    07:00 +11°C° 0 mm 0 mps 715 mmHg 69%
    08:00 +13°C° 0 mm 1 mps 715 mmHg 67%
    09:00 +14°C° 0 mm 1 mps 715 mmHg 65%
    10:00 +16°C° 0 mm 1 mps 716 mmHg 62%
    11:00 +16°C° 0.1 mm 1 mps 716 mmHg 61%
    12:00 +18°C° 0.1 mm 1 mps 716 mmHg 60%
    13:00 +19°C° 0.1 mm 1 mps 716 mmHg 59%
    14:00 +19°C° 0 mm 1 mps 716 mmHg 63%
    15:00 +18°C° 0 mm 1 mps 715 mmHg 66%
    16:00 +18°C° 0 mm 1 mps 715 mmHg 70%
    17:00 +16°C° 0 mm 1 mps 715 mmHg 76%
    18:00 +14°C° 0 mm 1 mps 715 mmHg 83%
    19:00 +12°C° 0 mm 1 mps 715 mmHg 89%
    20:00 +12°C° 0 mm 1 mps 715 mmHg 90%
    21:00 +11°C° 0 mm 1 mps 715 mmHg 91%
    22:00 +11°C° 0 mm 1 mps 715 mmHg 92%
    23:00 +11°C° 0 mm 1 mps 715 mmHg 93%

    Tomorrow, 24 September, Tuesday

    Time Temperature Precipitation Wind Pressure Humidity
    00:00 +9°C° 0 mm 0 mps 715 mmHg 93%
    01:00 +9°C° 0 mm 0 mps 715 mmHg 94%
    02:00 +8°C° 0 mm 0 mps 715 mmHg 94%
    03:00 +8°C° 0 mm 0 mps 715 mmHg 94%
    04:00 +8°C° 0 mm 0 mps 715 mmHg 94%
    05:00 +9°C° 0 mm 0 mps 715 mmHg 92%
    06:00 +9°C° 0 mm 0 mps 715 mmHg 90%
    07:00 +10°C° 0 mm 0 mps 715 mmHg 87%
    08:00 +13°C° 0 mm 1 mps 715 mmHg 78%
    09:00 +15°C° 0 mm 1 mps 715 mmHg 69%
    10:00 +19°C° 0 mm 1 mps 716 mmHg 59%
    11:00 +18°C° 0 mm 2 mps 715 mmHg 56%
    12:00 +19°C° 0 mm 2 mps 715 mmHg 53%
    13:00 +20°C° 0 mm 2 mps 715 mmHg 49%
    14:00 +19°C° 0 mm 2 mps 715 mmHg 53%
    15:00 +19°C° 0 mm 2 mps 714 mmHg 57%
    16:00 +18°C° 0 mm 2 mps 714 mmHg 61%
    17:00 +16°C° 0 mm 2 mps 714 mmHg 69%
    18:00 +14°C° 0 mm 2 mps 714 mmHg 76%
    19:00 +12°C° 0 mm 1 mps 714 mmHg 83%
    20:00 +11°C° 0 mm 1 mps 713 mmHg 84%
    21:00 +11°C° 0 mm 1 mps 713 mmHg 85%
    22:00 +11°C° 0 mm 1 mps 713 mmHg 86%
    23:00 +11°C° 0 mm 1 mps 713 mmHg 84%

    Day after tomorrow, 25 September, Wednesday

    Time Temperature Precipitation Wind Pressure Humidity
    00:00 +11°C° 0 mm 1 mps 713 mmHg 82%
    01:00 +11°C° 0 mm 1 mps 713 mmHg 80%
    02:00 +11°C° 0 mm 1 mps 713 mmHg 79%
    03:00 +11°C° 0 mm 1 mps 713 mmHg 77%
    04:00 +11°C° 0 mm 1 mps 712 mmHg 75%
    05:00 +12°C° 0 mm 1 mps 712 mmHg 74%
    06:00 +13°C° 0 mm 1 mps 712 mmHg 73%
    07:00 +13°C° 0 mm 1 mps 712 mmHg 72%
    08:00 +15°C° 0 mm 1 mps 713 mmHg 67%
    09:00 +18°C° 0 mm 1 mps 713 mmHg 61%
    10:00 +20°C° 0 mm 1 mps 713 mmHg 55%
    11:00 +20°C° 0.1 mm 1 mps 713 mmHg 55%
    12:00 +19°C° 0.1 mm 2 mps 713 mmHg 56%
    13:00 +20°C° 0.1 mm 2 mps 713 mmHg 56%
    14:00 +18°C° 0.5 mm 2 mps 712 mmHg 66%
    15:00 +17°C° 0.5 mm 2 mps 712 mmHg 75%
    16:00 +15°C° 0.5 mm 2 mps 712 mmHg 85%
    17:00 +14°C° 0 mm 2 mps 712 mmHg 87%
    18:00 +13°C° 0 mm 1 mps 712 mmHg 89%
    19:00 +12°C° 0 mm 1 mps 712 mmHg 91%
    20:00 +12°C° 0 mm 1 mps 712 mmHg 91%
    21:00 +12°C° 0 mm 2 mps 712 mmHg 90%
    22:00 +12°C° 0 mm 2 mps 712 mmHg 90%
    23:00 +12°C° 0 mm 2 mps 712 mmHg 90%

    26 September, Thursday

    Time Temperature Precipitation Wind Pressure Humidity
    00:00 +12°C° 0 mm 2 mps 713 mmHg 90%
    01:00 +12°C° 0 mm 2 mps 713 mmHg 90%
    02:00 +12°C° 0 mm 2 mps 713 mmHg 90%
    03:00 +12°C° 0 mm 2 mps 713 mmHg 90%
    04:00 +12°C° 0 mm 2 mps 713 mmHg 89%
    05:00 +12°C° 0 mm 2 mps 713 mmHg 89%
    06:00 +12°C° 0 mm 2 mps 713 mmHg 88%
    07:00 +12°C° 0 mm 2 mps 714 mmHg 88%
    08:00 +13°C° 0 mm 2 mps 714 mmHg 82%
    09:00 +13°C° 0 mm 3 mps 715 mmHg 76%
    10:00 +14°C° 0 mm 3 mps 715 mmHg 70%
    11:00 +16°C° 0.2 mm 3 mps 715 mmHg 68%
    12:00 +16°C° 0.2 mm 3 mps 715 mmHg 67%
    13:00 +17°C° 0.2 mm 3 mps 715 mmHg 66%
    14:00 +16°C° 0.3 mm 3 mps 715 mmHg 69%
    15:00 +16°C° 0.3 mm 2 mps 715 mmHg 71%
    16:00 +16°C° 0.3 mm 2 mps 714 mmHg 74%
    17:00 +14°C° 0 mm 2 mps 715 mmHg 79%
    18:00 +13°C° 0 mm 2 mps 715 mmHg 84%
    19:00 +11°C° 0 mm 1 mps 715 mmHg 88%
    20:00 +11°C° 0 mm 1 mps 715 mmHg 89%
    21:00 +10°C° 0 mm 2 mps 715 mmHg 90%
    22:00 +9°C° 0 mm 2 mps 716 mmHg 91%
    23:00 +10°C° 0 mm 1 mps 716 mmHg 91%

    27 September, Friday

    Time Temperature Precipitation Wind Pressure Humidity
    00:00 +10°C° 0 mm 1 mps 716 mmHg 91%
    01:00 +10°C° 0 mm 1 mps 716 mmHg 91%
    02:00 +10°C° 0 mm 1 mps 716 mmHg 92%
    03:00 +10°C° 0 mm 1 mps 716 mmHg 92%
    04:00 +9°C° 0 mm 1 mps 716 mmHg 92%
    05:00 +10°C° 0 mm 1 mps 716 mmHg 90%
    06:00 +11°C° 0 mm 1 mps 716 mmHg 88%
    07:00 +11°C° 0 mm 1 mps 716 mmHg 86%
    08:00 +13°C° 0 mm 1 mps 717 mmHg 80%
    09:00 +16°C° 0 mm 1 mps 717 mmHg 73%
    10:00 +19°C° 0 mm 1 mps 718 mmHg 66%
    11:00 +18°C° 0 mm 2 mps 718 mmHg 63%
    12:00 +19°C° 0 mm 2 mps 717 mmHg 60%
    13:00 +20°C° 0 mm 2 mps 717 mmHg 58%
    14:00 +20°C° 0 mm 2 mps 717 mmHg 63%
    15:00 +20°C° 0 mm 1 mps 717 mmHg 68%
    16:00 +20°C° 0 mm 1 mps 717 mmHg 73%
    17:00 +18°C° 0 mm 1 mps 717 mmHg 78%
    18:00 +16°C° 0 mm 1 mps 717 mmHg 83%
    19:00 +14°C° 0 mm 1 mps 716 mmHg 88%
    20:00 +14°C° 0 mm 1 mps 716 mmHg 88%
    21:00 +14°C° 0 mm 1 mps 717 mmHg 88%
    22:00 +13°C° 0 mm 1 mps 717 mmHg 89%
    23:00 +13°C° 0 mm 2 mps 716 mmHg 89%

    28 September, Saturday

    Time Temperature Precipitation Wind Pressure Humidity
    00:00 +13°C° 0 mm 2 mps 716 mmHg 89%
    01:00 +12°C° 0 mm 2 mps 716 mmHg 89%
    02:00 +12°C° 0 mm 2 mps 716 mmHg 89%
    03:00 +12°C° 0 mm 1 mps 716 mmHg 89%
    04:00 +12°C° 0 mm 1 mps 716 mmHg 89%
    05:00 +12°C° 0 mm 1 mps 716 mmHg 87%
    06:00 +13°C° 0 mm 1 mps 716 mmHg 84%
    07:00 +14°C° 0 mm 1 mps 716 mmHg 82%
    08:00 +15°C° 0 mm 1 mps 716 mmHg 76%
    09:00 +18°C° 0 mm 1 mps 716 mmHg 70%
    10:00 +19°C° 0 mm 2 mps 716 mmHg 64%
    11:00 +17°C° 0.3 mm 2 mps 716 mmHg 71%
    12:00 +16°C° 0.3 mm 2 mps 716 mmHg 79%
    13:00 +15°C° 0.3 mm 2 mps 715 mmHg 87%
    14:00 +15°C° 0.3 mm 2 mps 715 mmHg 89%
    15:00 +14°C° 0.3 mm 2 mps 715 mmHg 91%
    16:00 +14°C° 0.3 mm 1 mps 715 mmHg 93%
    17:00 +13°C° 0 mm 1 mps 715 mmHg 93%
    18:00 +13°C° 0 mm 1 mps 715 mmHg 94%
    19:00 +13°C° 0 mm 1 mps 715 mmHg 94%
    20:00 +12°C° 0 mm 2 mps 715 mmHg 93%
    21:00 +12°C° 0 mm 2 mps 715 mmHg 93%
    22:00 +12°C° 0 mm 2 mps 715 mmHg 92%
    23:00 +12°C° 0 mm 2 mps 715 mmHg 92%
    Show more